BEIDOU 10 (C10)

Last updated on Aug. 7, 2020, 5:36 a.m. UTC

1 37948U 11073A   20219.50570325 -.00000146  00000-0  10000-3 0  9990
2 37948  51.4912 297.3386 0070246 213.4884  82.1789  1.00284672 31933
UTC
Height (km)
Latitude
Longitude
Inclination
Orbital Period
UTC large
Height (km)
Speed (km/s)
/
Latitude / Longitude
Inclination (degrees)
Orbital Period (minutes)
Azimuth
Elevation
Range (km)
Doppler Factor
iOS Compass Heading
iOS Angle

Next 30 passes for location: Hong Kong

Rise time Rise Azimuth (degrees) Set time Set Azimuth (degrees) Duration Max altitude (degrees)

No matching passes for this satellites